Lampedusa current weather conditions

sailwx.info

Wind from 320 at 13 knots gusting 27

Air temperature 18.0° C
Visibility: greater than 5.4 NM
Dewpoint 10.0° C

Last reported at 2015-May-22 07:50 UTC.
Time now 2015-May-22 10:04 UTC

Location: N 35°30' E 012°37'.
View on Google Maps.

See reports from other nearby stations

  
Tides and Currents Weather Stations Pressure Air Temp Water Temp Dewpoint Dewpoint Depression Visibility Wind Speed Wind Dir Waves Ship Positions
date/time (UTC)wind fromknots sea level pressurealtimeterstation pressurevisibilityair tempwater tempwave heightnotes
2015-May-22 07:50 320 13 gusting 27 5.418.0
2015-May-22 05:50 330 20 gusting 35 18.0
2015-May-22 04:50 330 24 gusting 37 17.0
2015-May-22 03:56 340 20 gusting 33 17.0
2015-May-21 19:50 330 25 gusting 39 18.0
2015-May-21 18:50 330 27 gusting 39 18.0
2015-May-21 17:50 330 22 gusting 37 18.0
2015-May-21 16:50 340 22 gusting 35 19.0
2015-May-21 15:50 340 22 gusting 37 19.0
2015-May-21 14:50 340 27 gusting 41 20.0
2015-May-21 13:50 340 24 gusting 35 21.0
2015-May-21 12:50 350 25 gusting 39 21.0
2015-May-21 11:50 350 24 21.0
2015-May-21 10:50 340 24 gusting 34 21.0
2015-May-21 09:50 360 23 gusting 33 21.0
2015-May-21 08:50 360 20 gusting 31 20.0
2015-May-21 07:50 350 26 gusting 39 5.419.0
2015-May-21 06:50 010 22 5.420.0
2015-May-21 05:50 020 17 gusting 27 3.820.0
2015-May-21 04:50 360 24 gusting 35 5.419.0
2015-May-21 04:00 350 24 gusting 35 4.319.0
2015-May-20 19:50 070 8 22.0
2015-May-20 18:50 070 10 22.0
2015-May-20 17:50 050 5 23.0
2015-May-20 16:50 26.0
2015-May-20 15:50 060 3 25.0
2015-May-20 14:50 220 5 27.0
2015-May-20 13:50 260 9 28.0
2015-May-20 12:50 220 8 27.0
2015-May-20 11:50 220 6 25.0
2015-May-20 10:50 220 8 24.0